Location: Kunchanapalle
(16.4623°N, 80.6176°E)
Time: 18:11:49
(UTC+00:00)

Sakura Rocket - Pass Details

Date: 13 August 2020
Orbit: 476 x 1743 km, 28.7° (Epoch: 18 September)

Event Time Altitude Azimuth Distance (km) Brightness Sun altitude
Rises 13:33:17 0° 295° (WNW) 4,502 9.8 -7.7°
Reaches altitude 10° 13:36:44 10° 297° (WNW) 3,333 8.4 -8.5°
Maximum altitude 13:44:57 80° 23° (NNE) 1,031 4.1 -10.4°
Enters shadow 13:49:55 15° 110° (ESE) 2,103 5.1 -11.5°
